owner,sensor,date,latitude,longitude,vertical_datum,sea_water_practical_salinity,qcFlag 
DISL,ioos:station:DISL:DISL:1,2014-12-01T00:00:00Z,30.2513,-88.0778,2.11,28.39,1111122 
DISL,ioos:station:DISL:DISL:1,2014-12-01T00:30:00Z,30.2513,-88.0778,2.126,28.64,1111122 
DISL,ioos:station:DISL:DISL:1,2014-12-01T01:00:00Z,30.2513,-88.0778,2.133,29.81,1111122 
DISL,ioos:station:DISL:DISL:1,2014-12-01T01:30:00Z,30.2513,-88.0778,2.133,29.05,1111122 
DISL,ioos:station:DISL:DISL:1,2014-12-01T02:00:00Z,30.2513,-88.0778,2.152,27.46,1111122 
DISL,ioos:station:DISL:DISL:1,2014-12-01T02:30:00Z,30.2513,-88.0778,2.142,26.7,1111122 
DISL,ioos:station:DISL:DISL:1,2014-12-01T03:00:00Z,30.2513,-88.0778,2.137,25.89,1111122 
DISL,ioos:station:DISL:DISL:1,2014-12-01T03:30:00Z,30.2513,-88.0778,2.115,25.34,1111122 
DISL,ioos:station:DISL:DISL:1,2014-12-01T04:00:00Z,30.2513,-88.0778,2.113,24.72,1111122 
DISL,ioos:station:DISL:DISL:1,2014-12-01T04:30:00Z,30.2513,-88.0778,2.092,23.46,1111122 
DISL,ioos:station:DISL:DISL:1,2014-12-01T05:00:00Z,30.2513,-88.0778,2.089,23.06,1111122 
DISL,ioos:station:DISL:DISL:1,2014-12-01T05:30:00Z,30.2513,-88.0778,2.068,21.87,1111122 
DISL,ioos:station:DISL:DISL:1,2014-12-01T06:00:00Z,30.2513,-88.0778,2.043,21.41,1111122 
DISL,ioos:station:DISL:DISL:1,2014-12-01T06:30:00Z,30.2513,-88.0778,2.05,20.22,1111122 
DISL,ioos:station:DISL:DISL:1,2014-12-01T07:00:00Z,30.2513,-88.0778,2.043,19.07,1111122 
DISL,ioos:station:DISL:DISL:1,2014-12-01T07:30:00Z,30.2513,-88.0778,2.031,18.65,1111122 
DISL,ioos:station:DISL:DISL:1,2014-12-01T08:00:00Z,30.2513,-88.0778,2.019,18.54,1111122 
DISL,ioos:station:DISL:DISL:1,2014-12-01T08:30:00Z,30.2513,-88.0778,2.002,18.41,1111122 
DISL,ioos:station:DISL:DISL:1,2014-12-01T09:00:00Z,30.2513,-88.0778,1.995,18.24,1111122 
DISL,ioos:station:DISL:DISL:1,2014-12-01T09:30:00Z,30.2513,-88.0778,1.979,18.42,1111122 
DISL,ioos:station:DISL:DISL:1,2014-12-01T10:00:00Z,30.2513,-88.0778,1.959,18.5,1111122 
DISL,ioos:station:DISL:DISL:1,2014-12-01T10:30:00Z,30.2513,-88.0778,1.953,17.98,1111122 
DISL,ioos:station:DISL:DISL:1,2014-12-01T11:00:00Z,30.2513,-88.0778,1.949,18.59,1111122 
DISL,ioos:station:DISL:DISL:1,2014-12-01T11:30:00Z,30.2513,-88.0778,1.943,18.62,1111122 
DISL,ioos:station:DISL:DISL:1,2014-12-01T12:00:00Z,30.2513,-88.0778,1.961,19.19,1111122 
DISL,ioos:station:DISL:DISL:1,2014-12-01T12:30:00Z,30.2513,-88.0778,1.958,19.73,1111122 
DISL,ioos:station:DISL:DISL:1,2014-12-01T13:00:00Z,30.2513,-88.0778,1.949,20.39,1111122 
DISL,ioos:station:DISL:DISL:1,2014-12-01T13:30:00Z,30.2513,-88.0778,1.951,21.0,1111122 
DISL,ioos:station:DISL:DISL:1,2014-12-01T14:00:00Z,30.2513,-88.0778,1.949,23.49,1111122 
DISL,ioos:station:DISL:DISL:1,2014-12-01T14:30:00Z,30.2513,-88.0778,1.942,25.71,1111122 
DISL,ioos:station:DISL:DISL:1,2014-12-01T15:00:00Z,30.2513,-88.0778,1.943,24.64,1111122 
DISL,ioos:station:DISL:DISL:1,2014-12-01T15:30:00Z,30.2513,-88.0778,1.949,22.53,1111122 
DISL,ioos:station:DISL:DISL:1,2014-12-01T16:00:00Z,30.2513,-88.0778,1.945,23.21,1111122 
DISL,ioos:station:DISL:DISL:1,2014-12-01T16:30:00Z,30.2513,-88.0778,1.948,23.43,1111122 
DISL,ioos:station:DISL:DISL:1,2014-12-01T17:00:00Z,30.2513,-88.0778,1.948,22.19,1111122 
DISL,ioos:station:DISL:DISL:1,2014-12-01T17:30:00Z,30.2513,-88.0778,1.953,23.31,1111122 
DISL,ioos:station:DISL:DISL:1,2014-12-01T18:00:00Z,30.2513,-88.0778,1.954,22.98,1111122 
DISL,ioos:station:DISL:DISL:1,2014-12-01T18:30:00Z,30.2513,-88.0778,1.961,23.78,1111122 
DISL,ioos:station:DISL:DISL:1,2014-12-01T19:00:00Z,30.2513,-88.0778,1.957,26.04,1111122 
DISL,ioos:station:DISL:DISL:1,2014-12-01T19:30:00Z,30.2513,-88.0778,1.965,28.12,1111122 
DISL,ioos:station:DISL:DISL:1,2014-12-01T20:00:00Z,30.2513,-88.0778,1.985,28.37,1111122 
DISL,ioos:station:DISL:DISL:1,2014-12-01T20:30:00Z,30.2513,-88.0778,1.99,28.52,1111122 
DISL,ioos:station:DISL:DISL:1,2014-12-01T21:00:00Z,30.2513,-88.0778,1.987,28.61,1111122 
DISL,ioos:station:DISL:DISL:1,2014-12-01T21:30:00Z,30.2513,-88.0778,2.006,28.25,1111122 
DISL,ioos:station:DISL:DISL:1,2014-12-01T22:00:00Z,30.2513,-88.0778,2.017,27.98,1111122 
DISL,ioos:station:DISL:DISL:1,2014-12-01T22:30:00Z,30.2513,-88.0778,2.034,27.79,1111122 
DISL,ioos:station:DISL:DISL:1,2014-12-01T23:00:00Z,30.2513,-88.0778,2.004,27.88,1111122 
DISL,ioos:station:DISL:DISL:1,2014-12-01T23:30:00Z,30.2513,-88.0778,2.055,27.39,1111122 
DISL,ioos:station:DISL:DISL:1,2014-12-02T00:00:00Z,30.2513,-88.0778,2.081,26.81,1111122 
DISL,ioos:station:DISL:DISL:1,2014-12-02T00:30:00Z,30.2513,-88.0778,2.088,26.72,1111122 
DISL,ioos:station:DISL:DISL:1,2014-12-02T01:00:00Z,30.2513,-88.0778,2.103,26.97,1111122 
DISL,ioos:station:DISL:DISL:1,2014-12-02T01:30:00Z,30.2513,-88.0778,2.111,27.51,1111122 
DISL,ioos:station:DISL:DISL:1,2014-12-02T02:00:00Z,30.2513,-88.0778,2.121,28.05,1111122 
DISL,ioos:station:DISL:DISL:1,2014-12-02T02:30:00Z,30.2513,-88.0778,2.117,28.29,1111122 
DISL,ioos:station:DISL:DISL:1,2014-12-02T03:00:00Z,30.2513,-88.0778,2.112,26.69,1111122 
DISL,ioos:station:DISL:DISL:1,2014-12-02T03:30:00Z,30.2513,-88.0778,2.102,24.19,1111122 
DISL,ioos:station:DISL:DISL:1,2014-12-02T04:00:00Z,30.2513,-88.0778,2.097,23.35,1111122 
DISL,ioos:station:DISL:DISL:1,2014-12-02T04:30:00Z,30.2513,-88.0778,2.077,22.26,1111122 
DISL,ioos:station:DISL:DISL:1,2014-12-02T05:00:00Z,30.2513,-88.0778,2.069,22.21,1111122 
DISL,ioos:station:DISL:DISL:1,2014-12-02T05:30:00Z,30.2513,-88.0778,2.036,22.19,1111122 
DISL,ioos:station:DISL:DISL:1,2014-12-02T06:00:00Z,30.2513,-88.0778,2.031,21.61,1111122 
DISL,ioos:station:DISL:DISL:1,2014-12-02T06:30:00Z,30.2513,-88.0778,2.019,20.05,1111122 
DISL,ioos:station:DISL:DISL:1,2014-12-02T07:00:00Z,30.2513,-88.0778,2.008,18.9,1111122 
DISL,ioos:station:DISL:DISL:1,2014-12-02T07:30:00Z,30.2513,-88.0778,1.995,18.13,1111122 
DISL,ioos:station:DISL:DISL:1,2014-12-02T08:00:00Z,30.2513,-88.0778,1.985,17.44,1111122 
DISL,ioos:station:DISL:DISL:1,2014-12-02T08:30:00Z,30.2513,-88.0778,1.994,18.13,1111122 
DISL,ioos:station:DISL:DISL:1,2014-12-02T09:00:00Z,30.2513,-88.0778,1.966,19.72,1111122 
DISL,ioos:station:DISL:DISL:1,2014-12-02T09:30:00Z,30.2513,-88.0778,1.943,19.46,1111122 
DISL,ioos:station:DISL:DISL:1,2014-12-02T10:00:00Z,30.2513,-88.0778,1.93,20.87,1111122 
DISL,ioos:station:DISL:DISL:1,2014-12-02T10:30:00Z,30.2513,-88.0778,1.94,22.17,1111122 
DISL,ioos:station:DISL:DISL:1,2014-12-02T11:00:00Z,30.2513,-88.0778,1.948,22.08,1111122 
DISL,ioos:station:DISL:DISL:1,2014-12-02T11:30:00Z,30.2513,-88.0778,1.954,21.16,1111122 
DISL,ioos:station:DISL:DISL:1,2014-12-02T12:00:00Z,30.2513,-88.0778,1.938,22.87,1111122 
DISL,ioos:station:DISL:DISL:1,2014-12-02T12:30:00Z,30.2513,-88.0778,1.931,22.03,1111122 
DISL,ioos:station:DISL:DISL:1,2014-12-02T13:00:00Z,30.2513,-88.0778,1.943,22.46,1111122 
DISL,ioos:station:DISL:DISL:1,2014-12-02T13:30:00Z,30.2513,-88.0778,1.958,25.09,1111122 
DISL,ioos:station:DISL:DISL:1,2014-12-02T14:00:00Z,30.2513,-88.0778,1.987,24.98,1111122 
DISL,ioos:station:DISL:DISL:1,2014-12-02T14:30:00Z,30.2513,-88.0778,1.988,25.64,1111122 
DISL,ioos:station:DISL:DISL:1,2014-12-02T15:00:00Z,30.2513,-88.0778,1.995,25.94,1111122 
DISL,ioos:station:DISL:DISL:1,2014-12-02T15:30:00Z,30.2513,-88.0778,2.01,26.31,1111122 
DISL,ioos:station:DISL:DISL:1,2014-12-02T16:00:00Z,30.2513,-88.0778,2.001,25.91,1111122 
DISL,ioos:station:DISL:DISL:1,2014-12-02T16:30:00Z,30.2513,-88.0778,2.03,24.11,1111122 
DISL,ioos:station:DISL:DISL:1,2014-12-02T17:00:00Z,30.2513,-88.0778,2.03,24.01,1111122 
DISL,ioos:station:DISL:DISL:1,2014-12-02T17:30:00Z,30.2513,-88.0778,2.038,22.52,1111122 
DISL,ioos:station:DISL:DISL:1,2014-12-02T18:00:00Z,30.2513,-88.0778,2.05,22.71,1111122 
DISL,ioos:station:DISL:DISL:1,2014-12-02T18:30:00Z,30.2513,-88.0778,2.071,26.73,1111122 
DISL,ioos:station:DISL:DISL:1,2014-12-02T19:00:00Z,30.2513,-88.0778,2.104,29.66,1111122 
DISL,ioos:station:DISL:DISL:1,2014-12-02T19:30:00Z,30.2513,-88.0778,2.108,28.95,1111122 
DISL,ioos:station:DISL:DISL:1,2014-12-02T20:00:00Z,30.2513,-88.0778,2.122,30.22,1111122 
DISL,ioos:station:DISL:DISL:1,2014-12-02T20:30:00Z,30.2513,-88.0778,2.129,29.83,1111122 
DISL,ioos:station:DISL:DISL:1,2014-12-02T21:00:00Z,30.2513,-88.0778,2.14,29.84,1111122 
DISL,ioos:station:DISL:DISL:1,2014-12-02T21:30:00Z,30.2513,-88.0778,2.175,28.91,1111122 
DISL,ioos:station:DISL:DISL:1,2014-12-02T22:00:00Z,30.2513,-88.0778,2.198,30.01,1111122 
DISL,ioos:station:DISL:DISL:1,2014-12-02T22:30:00Z,30.2513,-88.0778,2.202,29.2,1111122 
DISL,ioos:station:DISL:DISL:1,2014-12-02T23:00:00Z,30.2513,-88.0778,2.224,30.26,1111122 
DISL,ioos:station:DISL:DISL:1,2014-12-02T23:30:00Z,30.2513,-88.0778,2.221,29.86,1111122 
DISL,ioos:station:DISL:DISL:1,2014-12-03T00:00:00Z,30.2513,-88.0778,2.219,29.72,1111122 
DISL,ioos:station:DISL:DISL:1,2014-12-03T00:30:00Z,30.2513,-88.0778,2.243,26.09,1111122 
DISL,ioos:station:DISL:DISL:1,2014-12-03T01:00:00Z,30.2513,-88.0778,2.267,24.08,1111122 
DISL,ioos:station:DISL:DISL:1,2014-12-03T01:30:00Z,30.2513,-88.0778,2.286,22.89,1111122 
DISL,ioos:station:DISL:DISL:1,2014-12-03T02:00:00Z,30.2513,-88.0778,2.274,23.79,1111122 
DISL,ioos:station:DISL:DISL:1,2014-12-03T02:30:00Z,30.2513,-88.0778,2.276,23.1,1111122 
DISL,ioos:station:DISL:DISL:1,2014-12-03T03:00:00Z,30.2513,-88.0778,2.258,22.86,1111122 
DISL,ioos:station:DISL:DISL:1,2014-12-03T03:30:00Z,30.2513,-88.0778,2.239,22.93,1111122 
DISL,ioos:station:DISL:DISL:1,2014-12-03T04:00:00Z,30.2513,-88.0778,2.218,23.41,1111122 
DISL,ioos:station:DISL:DISL:1,2014-12-03T04:30:00Z,30.2513,-88.0778,2.172,23.81,1111122 
DISL,ioos:station:DISL:DISL:1,2014-12-03T05:00:00Z,30.2513,-88.0778,2.14,23.69,1111122 
DISL,ioos:station:DISL:DISL:1,2014-12-03T05:30:00Z,30.2513,-88.0778,2.127,23.49,1111122 
DISL,ioos:station:DISL:DISL:1,2014-12-03T06:00:00Z,30.2513,-88.0778,2.083,23.45,1111122 
DISL,ioos:station:DISL:DISL:1,2014-12-03T06:30:00Z,30.2513,-88.0778,2.056,23.19,1111122 
DISL,ioos:station:DISL:DISL:1,2014-12-03T07:00:00Z,30.2513,-88.0778,2.044,16.05,1111122 
DISL,ioos:station:DISL:DISL:1,2014-12-03T07:30:00Z,30.2513,-88.0778,2.001,15.92,1111122 
DISL,ioos:station:DISL:DISL:1,2014-12-03T08:00:00Z,30.2513,-88.0778,2.001,16.53,1111122 
DISL,ioos:station:DISL:DISL:1,2014-12-03T08:30:00Z,30.2513,-88.0778,1.976,16.6,1111122 
DISL,ioos:station:DISL:DISL:1,2014-12-03T09:00:00Z,30.2513,-88.0778,1.964,15.59,1111122 
DISL,ioos:station:DISL:DISL:1,2014-12-03T09:30:00Z,30.2513,-88.0778,1.935,15.1,1111122 
DISL,ioos:station:DISL:DISL:1,2014-12-03T10:00:00Z,30.2513,-88.0778,1.926,14.9,1111122 
DISL,ioos:station:DISL:DISL:1,2014-12-03T10:30:00Z,30.2513,-88.0778,1.879,14.72,1111122 
DISL,ioos:station:DISL:DISL:1,2014-12-03T11:00:00Z,30.2513,-88.0778,1.874,14.57,1111122 
DISL,ioos:station:DISL:DISL:1,2014-12-03T11:30:00Z,30.2513,-88.0778,1.861,14.49,1111122 
DISL,ioos:station:DISL:DISL:1,2014-12-03T12:00:00Z,30.2513,-88.0778,1.853,14.51,1111122 
DISL,ioos:station:DISL:DISL:1,2014-12-03T12:30:00Z,30.2513,-88.0778,1.856,14.47,1111122 
DISL,ioos:station:DISL:DISL:1,2014-12-03T13:00:00Z,30.2513,-88.0778,1.85,15.5,1111122 
DISL,ioos:station:DISL:DISL:1,2014-12-03T13:30:00Z,30.2513,-88.0778,1.861,17.1,1111122 
DISL,ioos:station:DISL:DISL:1,2014-12-03T14:00:00Z,30.2513,-88.0778,1.879,17.38,1111122 
DISL,ioos:station:DISL:DISL:1,2014-12-03T14:30:00Z,30.2513,-88.0778,1.881,17.07,1111122 
DISL,ioos:station:DISL:DISL:1,2014-12-03T15:00:00Z,30.2513,-88.0778,1.886,21.98,1111122 
DISL,ioos:station:DISL:DISL:1,2014-12-03T15:30:00Z,30.2513,-88.0778,1.881,21.25,1111122 
DISL,ioos:station:DISL:DISL:1,2014-12-03T16:00:00Z,30.2513,-88.0778,1.909,21.16,1111122 
DISL,ioos:station:DISL:DISL:1,2014-12-03T16:30:00Z,30.2513,-88.0778,1.933,21.02,1111122 
DISL,ioos:station:DISL:DISL:1,2014-12-03T17:00:00Z,30.2513,-88.0778,1.956,20.22,1111122 
DISL,ioos:station:DISL:DISL:1,2014-12-03T17:30:00Z,30.2513,-88.0778,1.963,19.95,1111122 
DISL,ioos:station:DISL:DISL:1,2014-12-03T18:00:00Z,30.2513,-88.0778,1.986,18.79,1111122 
DISL,ioos:station:DISL:DISL:1,2014-12-03T18:30:00Z,30.2513,-88.0778,2.001,18.0,1111122 
DISL,ioos:station:DISL:DISL:1,2014-12-03T19:00:00Z,30.2513,-88.0778,2.019,23.79,1111122 
DISL,ioos:station:DISL:DISL:1,2014-12-03T19:30:00Z,30.2513,-88.0778,2.035,27.45,1111122 
DISL,ioos:station:DISL:DISL:1,2014-12-03T20:00:00Z,30.2513,-88.0778,2.085,28.67,1111122 
DISL,ioos:station:DISL:DISL:1,2014-12-03T20:30:00Z,30.2513,-88.0778,2.113,29.79,1111122 
DISL,ioos:station:DISL:DISL:1,2014-12-03T21:00:00Z,30.2513,-88.0778,2.134,28.9,1111122 
DISL,ioos:station:DISL:DISL:1,2014-12-03T21:30:00Z,30.2513,-88.0778,2.16,28.45,1111122 
DISL,ioos:station:DISL:DISL:1,2014-12-03T22:00:00Z,30.2513,-88.0778,2.178,30.16,1111122 
DISL,ioos:station:DISL:DISL:1,2014-12-03T22:30:00Z,30.2513,-88.0778,2.207,30.23,1111122 
DISL,ioos:station:DISL:DISL:1,2014-12-03T23:00:00Z,30.2513,-88.0778,2.218,29.96,1111122 
DISL,ioos:station:DISL:DISL:1,2014-12-03T23:30:00Z,30.2513,-88.0778,2.251,28.48,1111122 
DISL,ioos:station:DISL:DISL:1,2014-12-04T00:00:00Z,30.2513,-88.0778,2.263,26.28,1111122 
DISL,ioos:station:DISL:DISL:1,2014-12-04T00:30:00Z,30.2513,-88.0778,2.283,25.37,1111122 
DISL,ioos:station:DISL:DISL:1,2014-12-04T01:00:00Z,30.2513,-88.0778,2.293,24.18,1111122 
DISL,ioos:station:DISL:DISL:1,2014-12-04T01:30:00Z,30.2513,-88.0778,2.293,25.83,1111122 
DISL,ioos:station:DISL:DISL:1,2014-12-04T02:00:00Z,30.2513,-88.0778,2.319,21.49,1111122 
DISL,ioos:station:DISL:DISL:1,2014-12-04T02:30:00Z,30.2513,-88.0778,2.326,21.39,1111122 
DISL,ioos:station:DISL:DISL:1,2014-12-04T03:00:00Z,30.2513,-88.0778,2.316,21.88,1111122 
DISL,ioos:station:DISL:DISL:1,2014-12-04T03:30:00Z,30.2513,-88.0778,2.327,21.7,1111122 
DISL,ioos:station:DISL:DISL:1,2014-12-04T04:00:00Z,30.2513,-88.0778,2.273,22.07,1111122 
DISL,ioos:station:DISL:DISL:1,2014-12-04T04:30:00Z,30.2513,-88.0778,2.246,22.05,1111122 
DISL,ioos:station:DISL:DISL:1,2014-12-04T05:00:00Z,30.2513,-88.0778,2.207,22.34,1111122 
DISL,ioos:station:DISL:DISL:1,2014-12-04T05:30:00Z,30.2513,-88.0778,2.191,22.07,1111122 
DISL,ioos:station:DISL:DISL:1,2014-12-04T06:00:00Z,30.2513,-88.0778,2.149,22.29,1111122 
DISL,ioos:station:DISL:DISL:1,2014-12-04T06:30:00Z,30.2513,-88.0778,2.123,22.53,1111122 
DISL,ioos:station:DISL:DISL:1,2014-12-04T07:00:00Z,30.2513,-88.0778,2.078,21.67,1111122 
DISL,ioos:station:DISL:DISL:1,2014-12-04T07:30:00Z,30.2513,-88.0778,2.063,16.45,1111122 
DISL,ioos:station:DISL:DISL:1,2014-12-04T08:00:00Z,30.2513,-88.0778,2.037,14.96,1111122 
DISL,ioos:station:DISL:DISL:1,2014-12-04T08:30:00Z,30.2513,-88.0778,2.002,14.61,1111122 
DISL,ioos:station:DISL:DISL:1,2014-12-04T09:00:00Z,30.2513,-88.0778,1.985,14.23,1111122 
DISL,ioos:station:DISL:DISL:1,2014-12-04T09:30:00Z,30.2513,-88.0778,1.963,14.03,1111122 
DISL,ioos:station:DISL:DISL:1,2014-12-04T10:00:00Z,30.2513,-88.0778,1.936,13.84,1111122 
DISL,ioos:station:DISL:DISL:1,2014-12-04T10:30:00Z,30.2513,-88.0778,1.916,13.53,1111122 
DISL,ioos:station:DISL:DISL:1,2014-12-04T11:00:00Z,30.2513,-88.0778,1.89,13.24,1111122 
DISL,ioos:station:DISL:DISL:1,2014-12-04T11:30:00Z,30.2513,-88.0778,1.866,13.02,1111122 
DISL,ioos:station:DISL:DISL:1,2014-12-04T12:00:00Z,30.2513,-88.0778,1.841,13.14,1111122 
DISL,ioos:station:DISL:DISL:1,2014-12-04T12:30:00Z,30.2513,-88.0778,1.837,15.9,1111122 
DISL,ioos:station:DISL:DISL:1,2014-12-04T13:00:00Z,30.2513,-88.0778,1.855,16.9,1111122 
DISL,ioos:station:DISL:DISL:1,2014-12-04T13:30:00Z,30.2513,-88.0778,1.835,17.55,1111122 
DISL,ioos:station:DISL:DISL:1,2014-12-04T14:00:00Z,30.2513,-88.0778,1.866,17.88,1111122 
DISL,ioos:station:DISL:DISL:1,2014-12-04T14:30:00Z,30.2513,-88.0778,1.859,18.6,1111122 
DISL,ioos:station:DISL:DISL:1,2014-12-04T15:00:00Z,30.2513,-88.0778,1.857,18.37,1111122 
DISL,ioos:station:DISL:DISL:1,2014-12-04T15:30:00Z,30.2513,-88.0778,1.875,20.08,1111122 
DISL,ioos:station:DISL:DISL:1,2014-12-04T16:00:00Z,30.2513,-88.0778,1.885,19.73,1111122 
DISL,ioos:station:DISL:DISL:1,2014-12-04T16:30:00Z,30.2513,-88.0778,1.899,19.61,1111122 
DISL,ioos:station:DISL:DISL:1,2014-12-04T17:00:00Z,30.2513,-88.0778,1.917,19.22,1111122 
DISL,ioos:station:DISL:DISL:1,2014-12-04T17:30:00Z,30.2513,-88.0778,1.919,19.53,1111122 
DISL,ioos:station:DISL:DISL:1,2014-12-04T18:00:00Z,30.2513,-88.0778,1.946,19.43,1111122 
DISL,ioos:station:DISL:DISL:1,2014-12-04T18:30:00Z,30.2513,-88.0778,1.969,19.72,1111122 
DISL,ioos:station:DISL:DISL:1,2014-12-04T19:00:00Z,30.2513,-88.0778,1.999,18.87,1111122 
DISL,ioos:station:DISL:DISL:1,2014-12-04T19:30:00Z,30.2513,-88.0778,2.012,26.54,1111122 
DISL,ioos:station:DISL:DISL:1,2014-12-04T20:00:00Z,30.2513,-88.0778,2.037,26.88,1111122 
DISL,ioos:station:DISL:DISL:1,2014-12-04T20:30:00Z,30.2513,-88.0778,2.051,27.41,1111122 
DISL,ioos:station:DISL:DISL:1,2014-12-04T21:00:00Z,30.2513,-88.0778,2.083,28.17,1111122 
DISL,ioos:station:DISL:DISL:1,2014-12-04T21:30:00Z,30.2513,-88.0778,2.105,28.9,1111122 
DISL,ioos:station:DISL:DISL:1,2014-12-04T22:00:00Z,30.2513,-88.0778,2.142,29.06,1111122 
DISL,ioos:station:DISL:DISL:1,2014-12-04T22:30:00Z,30.2513,-88.0778,2.167,29.17,1111122 
DISL,ioos:station:DISL:DISL:1,2014-12-04T23:00:00Z,30.2513,-88.0778,2.191,29.2,1111122 
DISL,ioos:station:DISL:DISL:1,2014-12-04T23:30:00Z,30.2513,-88.0778,2.214,29.13,1111122 
DISL,ioos:station:DISL:DISL:1,2014-12-05T00:00:00Z,30.2513,-88.0778,2.24,28.96,1111122 
DISL,ioos:station:DISL:DISL:1,2014-12-05T00:30:00Z,30.2513,-88.0778,2.259,29.33,1111122 
DISL,ioos:station:DISL:DISL:1,2014-12-05T01:00:00Z,30.2513,-88.0778,2.273,29.71,1111122 
DISL,ioos:station:DISL:DISL:1,2014-12-05T01:30:00Z,30.2513,-88.0778,2.296,29.43,1111122 
DISL,ioos:station:DISL:DISL:1,2014-12-05T02:00:00Z,30.2513,-88.0778,2.313,28.43,1111122 
DISL,ioos:station:DISL:DISL:1,2014-12-05T02:30:00Z,30.2513,-88.0778,2.317,27.54,1111122 
DISL,ioos:station:DISL:DISL:1,2014-12-05T03:00:00Z,30.2513,-88.0778,2.331,25.7,1111122 
DISL,ioos:station:DISL:DISL:1,2014-12-05T03:30:00Z,30.2513,-88.0778,2.334,24.63,1111122 
DISL,ioos:station:DISL:DISL:1,2014-12-05T04:00:00Z,30.2513,-88.0778,2.313,24.38,1111122 
DISL,ioos:station:DISL:DISL:1,2014-12-05T04:30:00Z,30.2513,-88.0778,2.274,24.11,1111122 
DISL,ioos:station:DISL:DISL:1,2014-12-05T05:00:00Z,30.2513,-88.0778,2.271,24.17,1111122 
DISL,ioos:station:DISL:DISL:1,2014-12-05T05:30:00Z,30.2513,-88.0778,2.285,24.25,1111122 
DISL,ioos:station:DISL:DISL:1,2014-12-05T06:00:00Z,30.2513,-88.0778,2.213,24.52,1111122 
DISL,ioos:station:DISL:DISL:1,2014-12-05T06:30:00Z,30.2513,-88.0778,2.181,24.5,1111122 
DISL,ioos:station:DISL:DISL:1,2014-12-05T07:00:00Z,30.2513,-88.0778,2.159,24.31,1111122 
DISL,ioos:station:DISL:DISL:1,2014-12-05T07:30:00Z,30.2513,-88.0778,2.12,23.49,1111122 
DISL,ioos:station:DISL:DISL:1,2014-12-05T08:00:00Z,30.2513,-88.0778,2.087,18.92,1111122 
DISL,ioos:station:DISL:DISL:1,2014-12-05T08:30:00Z,30.2513,-88.0778,2.062,18.68,1111122 
DISL,ioos:station:DISL:DISL:1,2014-12-05T09:00:00Z,30.2513,-88.0778,2.046,18.83,1111122 
DISL,ioos:station:DISL:DISL:1,2014-12-05T09:30:00Z,30.2513,-88.0778,2.012,18.72,1111122 
DISL,ioos:station:DISL:DISL:1,2014-12-05T10:00:00Z,30.2513,-88.0778,1.989,16.81,1111122 
DISL,ioos:station:DISL:DISL:1,2014-12-05T10:30:00Z,30.2513,-88.0778,1.987,16.34,1111122 
DISL,ioos:station:DISL:DISL:1,2014-12-05T11:00:00Z,30.2513,-88.0778,1.942,16.16,1111122 
DISL,ioos:station:DISL:DISL:1,2014-12-05T11:30:00Z,30.2513,-88.0778,1.938,16.1,1111122 
DISL,ioos:station:DISL:DISL:1,2014-12-05T12:00:00Z,30.2513,-88.0778,1.926,15.96,1111122 
DISL,ioos:station:DISL:DISL:1,2014-12-05T12:30:00Z,30.2513,-88.0778,1.911,15.62,1111122 
DISL,ioos:station:DISL:DISL:1,2014-12-05T13:00:00Z,30.2513,-88.0778,1.905,15.38,1111122 
DISL,ioos:station:DISL:DISL:1,2014-12-05T13:30:00Z,30.2513,-88.0778,1.879,15.74,1111122 
DISL,ioos:station:DISL:DISL:1,2014-12-05T14:00:00Z,30.2513,-88.0778,1.871,18.53,1111122 
DISL,ioos:station:DISL:DISL:1,2014-12-05T14:30:00Z,30.2513,-88.0778,1.894,20.14,1111122 
DISL,ioos:station:DISL:DISL:1,2014-12-05T15:00:00Z,30.2513,-88.0778,1.902,21.4,1111122 
DISL,ioos:station:DISL:DISL:1,2014-12-05T15:30:00Z,30.2513,-88.0778,1.911,21.12,1111122 
DISL,ioos:station:DISL:DISL:1,2014-12-05T16:00:00Z,30.2513,-88.0778,1.921,22.26,1111122 
DISL,ioos:station:DISL:DISL:1,2014-12-05T16:30:00Z,30.2513,-88.0778,1.943,22.71,1111122 
DISL,ioos:station:DISL:DISL:1,2014-12-05T17:00:00Z,30.2513,-88.0778,1.952,22.62,1111122 
DISL,ioos:station:DISL:DISL:1,2014-12-05T17:30:00Z,30.2513,-88.0778,1.965,22.61,1111122 
DISL,ioos:station:DISL:DISL:1,2014-12-05T18:00:00Z,30.2513,-88.0778,1.99,22.4,1111122 
DISL,ioos:station:DISL:DISL:1,2014-12-05T18:30:00Z,30.2513,-88.0778,2.026,22.23,1111122 
DISL,ioos:station:DISL:DISL:1,2014-12-05T19:00:00Z,30.2513,-88.0778,2.036,21.37,1111122 
DISL,ioos:station:DISL:DISL:1,2014-12-05T19:30:00Z,30.2513,-88.0778,2.071,21.29,1111122 
DISL,ioos:station:DISL:DISL:1,2014-12-05T20:00:00Z,30.2513,-88.0778,2.09,24.56,1111122 
DISL,ioos:station:DISL:DISL:1,2014-12-05T20:30:00Z,30.2513,-88.0778,2.114,28.74,1111122 
DISL,ioos:station:DISL:DISL:1,2014-12-05T21:00:00Z,30.2513,-88.0778,2.144,29.35,1111122 
DISL,ioos:station:DISL:DISL:1,2014-12-05T21:30:00Z,30.2513,-88.0778,2.179,29.42,1111122 
DISL,ioos:station:DISL:DISL:1,2014-12-05T22:00:00Z,30.2513,-88.0778,2.214,29.68,1111122 
DISL,ioos:station:DISL:DISL:1,2014-12-05T22:30:00Z,30.2513,-88.0778,2.242,29.81,1111122 
DISL,ioos:station:DISL:DISL:1,2014-12-05T23:00:00Z,30.2513,-88.0778,2.269,29.86,1111122 
DISL,ioos:station:DISL:DISL:1,2014-12-05T23:30:00Z,30.2513,-88.0778,2.331,29.84,1111122 
DISL,ioos:station:DISL:DISL:1,2014-12-06T00:00:00Z,30.2513,-88.0778,2.324,29.46,1111122 
DISL,ioos:station:DISL:DISL:1,2014-12-06T00:30:00Z,30.2513,-88.0778,2.354,29.66,1111122 
DISL,ioos:station:DISL:DISL:1,2014-12-06T01:00:00Z,30.2513,-88.0778,2.38,29.99,1111122 
DISL,ioos:station:DISL:DISL:1,2014-12-06T01:30:00Z,30.2513,-88.0778,2.389,29.5,1111122 
DISL,ioos:station:DISL:DISL:1,2014-12-06T02:00:00Z,30.2513,-88.0778,2.388,28.19,1111122 
DISL,ioos:station:DISL:DISL:1,2014-12-06T02:30:00Z,30.2513,-88.0778,2.418,27.02,1111122 
DISL,ioos:station:DISL:DISL:1,2014-12-06T03:00:00Z,30.2513,-88.0778,2.446,24.97,1111122 
DISL,ioos:station:DISL:DISL:1,2014-12-06T03:30:00Z,30.2513,-88.0778,2.431,24.96,1111122 
DISL,ioos:station:DISL:DISL:1,2014-12-06T04:00:00Z,30.2513,-88.0778,2.407,24.8,1111122 
DISL,ioos:station:DISL:DISL:1,2014-12-06T04:30:00Z,30.2513,-88.0778,2.357,24.8,1111122 
DISL,ioos:station:DISL:DISL:1,2014-12-06T05:00:00Z,30.2513,-88.0778,2.362,24.86,1111122 
DISL,ioos:station:DISL:DISL:1,2014-12-06T05:30:00Z,30.2513,-88.0778,2.336,25.03,1111122 
DISL,ioos:station:DISL:DISL:1,2014-12-06T06:00:00Z,30.2513,-88.0778,2.303,25.46,1111122 
DISL,ioos:station:DISL:DISL:1,2014-12-06T06:30:00Z,30.2513,-88.0778,2.262,25.75,1111122 
DISL,ioos:station:DISL:DISL:1,2014-12-06T07:00:00Z,30.2513,-88.0778,2.226,25.91,1111122 
DISL,ioos:station:DISL:DISL:1,2014-12-06T07:30:00Z,30.2513,-88.0778,2.174,26.02,1111122 
DISL,ioos:station:DISL:DISL:1,2014-12-06T08:00:00Z,30.2513,-88.0778,2.142,24.32,1111122 
DISL,ioos:station:DISL:DISL:1,2014-12-06T08:30:00Z,30.2513,-88.0778,2.099,23.79,1111122 
DISL,ioos:station:DISL:DISL:1,2014-12-06T09:00:00Z,30.2513,-88.0778,2.077,24.09,1111122 
DISL,ioos:station:DISL:DISL:1,2014-12-06T09:30:00Z,30.2513,-88.0778,2.056,22.27,1111122 
DISL,ioos:station:DISL:DISL:1,2014-12-06T10:00:00Z,30.2513,-88.0778,2.022,18.33,1111122 
DISL,ioos:station:DISL:DISL:1,2014-12-06T10:30:00Z,30.2513,-88.0778,1.991,16.65,1111122 
DISL,ioos:station:DISL:DISL:1,2014-12-06T11:00:00Z,30.2513,-88.0778,1.958,17.07,1111122 
DISL,ioos:station:DISL:DISL:1,2014-12-06T11:30:00Z,30.2513,-88.0778,1.954,17.36,1111122 
DISL,ioos:station:DISL:DISL:1,2014-12-06T12:00:00Z,30.2513,-88.0778,1.913,17.39,1111122 
DISL,ioos:station:DISL:DISL:1,2014-12-06T12:30:00Z,30.2513,-88.0778,1.879,17.5,1111122 
DISL,ioos:station:DISL:DISL:1,2014-12-06T13:00:00Z,30.2513,-88.0778,1.886,18.29,1111122 
DISL,ioos:station:DISL:DISL:1,2014-12-06T13:30:00Z,30.2513,-88.0778,1.851,19.54,1111122 
DISL,ioos:station:DISL:DISL:1,2014-12-06T14:00:00Z,30.2513,-88.0778,1.835,20.17,1111122 